Find Starlink 6356

NORAD ID: 57363 Int'l Des: 2023-099 Owner: SPXS Country: US Constellation: starlink operational
LEOCIRCULAR

現在のビュー

3D地球を読み込み中...

About Starlink 6356

Starlink 6356 (NORAD 57363) is a starlink constellation satellite (v1.5) launched Jul 16, 2023 by SPXS of US. It operates in LEO, CIRCULAR orbit with a mass of 305.00 kg.

Starlink 6356について

説明を読み込み中...

次回通過

Passes for default location (London). Set your location on the main map for personalized predictions.

高度履歴

Loading altitude history...

軌道要素

1 57363U 23099AM 26195.21244345 .00000148 00000-0 14915-4 0 9992
2 57363 43.0009 246.7739 0001475 256.7961 103.2726 15.27576315165558
Epoch: Jul 14, 2026 • Age: 8 hours

現在のステータス

高度 486.7 km
遠地点 / 近地点 N/A
速度 7.63 km/s
衛星直下点 41.41°N, 138.77°W
打ち上げ日 Jul 16, 2023
運用期間 2.9 years
タイプ internet

技術仕様

分類 Payload
質量 305.00 kg
乾燥質量 290.00 kg
総質量 305.00 kg
長さ 0.20 m
直径 2.80 m
スパン 9.00 m
形状 Box + pan
製造者 SPXS
バスタイプ Starlink
フェーズステータス In Orbit
所有者/国 SPXS/US

Most Searched